Frederick, MD

3:29 PM EST on December 10, 2016 (GMT -0500)
Frederick Municipal

Weather History for KFDK - December, 2013

Change the Weather History Date:

Saturday, December 7, 2013

  Actual Average (KHGR) Record (KHGR)
Temperature  
Mean Temperature 34 °F -  
Max Temperature 39 °F 42 °F 73 °F (1998)
Min Temperature 30 °F 30 °F 12 °F (2002)
Degree Days  
Heating Degree Days 30    
Moisture  
Dew Point 30 °F    
Average Humidity 85    
Maximum Humidity 100    
Minimum Humidity 65    
Precipitation  
Precipitation 0.00 in - - ()
Sea Level Pressure  
Sea Level Pressure 30.40 in    
Wind  
Wind Speed 7 mph (North)    
Max Wind Speed 15 mph    
Max Gust Speed 21 mph    
Visibility 10 miles    
Events Rain    
Averages and records for this station are not official NWS values.
T = Trace of Precipitation, MM = Missing Value Source: NWS Daily Summary

Daily Weather History Graph

Daily Weather History Graph

Search for Another Location

Airport or City:

Trip Planner

Search our weather history database for the weather conditions in past years. The results will help you decide how hot, cold, wet, or windy it might be!

Date:

Astronomy

Dec. 07, 2013 Rise Set
Actual Time 7:16 AM EST 4:45 PM EST
Civil Twilight 6:46 AM EST 5:15 PM EST
Nautical Twilight 6:12 AM EST 5:49 PM EST
Astronomical Twilight 5:40 AM EST 6:21 PM EST
Moon 11:01 AM EST (12/7) 10:23 PM EST (12/7)
Length of Visible Light 10h 29m
Length of Day
9h 29m
Waxing Crescent, 29% of the Moon is Illuminated
Dec 7
Waxing Crescent
Dec 9
First Quarter
Dec 17
Full
Dec 25
Last Quarter
Jan 1
New

Hourly Weather History & Observations

Time (EST) Temp. Windchill Dew Point Humidity Pressure Visibility Wind Dir Wind Speed Gust Speed Precip Events Conditions
12:10 AM 35.6 °F 28.6 °F 35.6 °F 100% 30.20 in 5.0 mi North 9.2 mph - 0.02 in Rain Rain
12:30 AM 35.6 °F 30.7 °F 35.6 °F 100% 30.20 in 10.0 mi North 5.8 mph - 0.02 in Rain Light Rain
12:50 AM 35.6 °F 29.2 °F 35.6 °F 100% 30.19 in 10.0 mi NNE 8.1 mph - 0.03 in   Overcast
1:10 AM 35.6 °F 29.9 °F 35.6 °F 100% 30.21 in 10.0 mi North 6.9 mph - N/A   Overcast
1:30 AM 35.6 °F 32.8 °F 35.6 °F 100% 30.24 in 10.0 mi North 3.5 mph - N/A   Overcast
1:50 AM 35.6 °F 29.9 °F 35.6 °F 100% 30.22 in 10.0 mi NNE 6.9 mph - N/A   Overcast
2:10 AM 35.6 °F 28.6 °F 35.6 °F 100% 30.24 in 10.0 mi NNE 9.2 mph - N/A   Overcast
2:30 AM 35.6 °F 29.2 °F 35.6 °F 100% 30.25 in 4.0 mi NNE 8.1 mph - N/A   Overcast
2:50 AM 35.6 °F 29.2 °F 35.6 °F 100% 30.26 in 5.0 mi North 8.1 mph - N/A   Overcast
3:10 AM 35.6 °F 29.9 °F 35.6 °F 100% 30.26 in 10.0 mi North 6.9 mph - N/A   Overcast
3:30 AM 35.6 °F 30.7 °F 35.6 °F 100% 30.26 in 10.0 mi NNE 5.8 mph - N/A   Overcast
3:50 AM 35.6 °F 29.2 °F 35.6 °F 100% 30.26 in 10.0 mi North 8.1 mph - N/A   Overcast
4:10 AM 35.6 °F 29.9 °F 35.6 °F 100% 30.27 in 10.0 mi North 6.9 mph - N/A   Overcast
4:30 AM 35.6 °F 32.8 °F 35.6 °F 100% 30.28 in 10.0 mi North 3.5 mph - N/A   Overcast
4:50 AM 35.6 °F 29.9 °F 35.6 °F 100% 30.29 in 10.0 mi North 6.9 mph - N/A   Overcast
5:10 AM 35.6 °F 31.7 °F 33.8 °F 93% 30.29 in 10.0 mi North 4.6 mph - N/A   Overcast
5:30 AM 35.6 °F 31.7 °F 33.8 °F 93% 30.30 in 10.0 mi NNE 4.6 mph - N/A   Overcast
5:40 AM 35.6 °F - 33.8 °F 93% 30.31 in 10.0 mi Calm Calm - N/A   Overcast
6:45 AM 35.6 °F - 35.6 °F 100% 30.34 in 10.0 mi Calm Calm - N/A   Overcast
7:50 AM 37.4 °F - 37.4 °F 100% 30.37 in 10.0 mi Calm Calm - N/A   Overcast
8:55 AM 37.4 °F 30.8 °F 32.0 °F 81% 30.40 in 10.0 mi North 9.2 mph 16.1 mph N/A   Scattered Clouds
9:50 AM - - - N/A% 30.42 in 10.0 mi NNW 8.1 mph - N/A   Scattered Clouds
10:49 AM 39.2 °F 31.2 °F 32.0 °F 75% 30.44 in 10.0 mi NNW 13.8 mph 18.4 mph N/A   Mostly Cloudy
11:45 AM 39.2 °F 30.8 °F 30.2 °F 70% 30.45 in 10.0 mi NNW 15.0 mph - N/A   Mostly Cloudy
12:45 PM 39.2 °F 30.8 °F 30.2 °F 70% 30.44 in 10.0 mi NNW 15.0 mph 20.7 mph N/A   Mostly Cloudy
1:48 PM 39.2 °F 33.6 °F 30.2 °F 70% 30.43 in 10.0 mi NNW 8.1 mph - N/A   Mostly Cloudy
2:48 PM 39.2 °F 35.0 °F 28.4 °F 65% 30.44 in 10.0 mi North 5.8 mph - N/A   Scattered Clouds
3:50 PM 37.4 °F 31.4 °F 26.6 °F 65% 30.46 in 10.0 mi NW 8.1 mph - N/A   Clear
4:50 PM 35.6 °F 29.9 °F 26.6 °F 70% 30.48 in 10.0 mi NW 6.9 mph - N/A   Scattered Clouds
5:50 PM 33.8 °F 30.8 °F 30.2 °F 87% 30.50 in 10.0 mi North 3.5 mph - N/A   Clear
6:50 PM 33.8 °F 26.4 °F 24.8 °F 70% 30.53 in 10.0 mi NW 9.2 mph - N/A   Clear
7:50 PM 32.0 °F 26.4 °F 23.0 °F 69% 30.56 in 10.0 mi NW 5.8 mph - N/A   Clear
8:10 PM 32.0 °F 27.5 °F 23.0 °F 69% 30.56 in 10.0 mi NW 4.6 mph - N/A   Clear
8:30 PM 32.0 °F 26.4 °F 23.0 °F 69% 30.56 in 10.0 mi NNW 5.8 mph - N/A   Clear
8:50 PM 32.0 °F 25.6 °F 23.0 °F 69% 30.55 in 10.0 mi NNW 6.9 mph - N/A   Clear
9:10 PM 32.0 °F 26.4 °F 23.0 °F 69% 30.57 in 10.0 mi NNW 5.8 mph - N/A   Clear
9:35 PM 32.0 °F 26.4 °F 23.0 °F 69% 30.56 in 10.0 mi NNW 5.8 mph - N/A   Clear
9:55 PM 32.0 °F 26.4 °F 23.0 °F 69% 30.57 in 10.0 mi North 5.8 mph - N/A   Clear
10:15 PM 32.0 °F 25.6 °F 24.8 °F 75% 30.57 in 10.0 mi North 6.9 mph - N/A   Clear
10:35 PM 30.2 °F 26.7 °F 24.8 °F 80% 30.57 in 10.0 mi NE 3.5 mph - N/A   Clear
10:55 PM 30.2 °F - 24.8 °F 80% 30.57 in 10.0 mi Calm Calm - N/A   Clear
11:15 PM 30.2 °F 25.4 °F 23.0 °F 75% 30.56 in 10.0 mi NNE 4.6 mph - N/A   Clear
11:35 PM 30.2 °F 23.4 °F 23.0 °F 75% 30.57 in 10.0 mi North 6.9 mph - N/A   Clear
11:55 PM 30.2 °F 25.4 °F 23.0 °F 75% 30.57 in 10.0 mi NE 4.6 mph - N/A   Clear